QPF
0.01 0.01 0.01 0.03 0.02 0.00 0.00 0.00 0.00 0.00 0.00 0.00 0.00 0.00 0.00 0.00 0.00 0.00 0.00 0.00 0.00 0.00 0.00 0.01 0.02 0.02 0.02 0.03 0.02 0.01 0.01 0.02 0.03 0.03 0.02 0.01 0.00 0.00 0.00 0.00 0.00 0.00 0.00 0.00 0.01 0.03 0.03 0.04 0.04
0.01 0.02 0.05 0.04 0.01 0.00 0.00 0.00 0.00 0.00 0.00 0.00 0.00 0.00 0.00 0.00 0.00 0.00 0.00 0.00 0.00 0.00 0.00 0.00 0.01 0.02 0.02 0.03 0.03 0.02 0.01 0.02 0.03 0.03 0.01 0.00 0.00 0.00 0.00 0.00 0.00 0.00 0.00 0.00 0.01 0.03 0.04 0.04 0.05
0.02 0.04 0.07 0.02 0.00 0.00 0.00 0.00 0.00 0.00 0.00 0.00 0.00 0.00 0.00 0.00 0.00 0.00 0.00 0.00 0.00 0.00 0.00 0.00 0.01 0.01 0.02 0.03 0.04 0.03 0.03 0.03 0.03 0.03 0.01 0.01 0.01 0.00 0.00 0.00 0.00 0.00 0.00 0.00 0.01 0.03 0.03 0.04 0.04
0.02 0.04 0.03 0.01 0.00 0.00 0.00 0.00 0.00 0.00 0.00 0.00 0.00 0.00 0.00 0.00 0.00 0.00 0.00 0.00 0.00 0.00 0.00 0.00 0.01 0.01 0.02 0.04 0.04 0.04 0.04 0.03 0.03 0.03 0.03 0.02 0.01 0.00 0.00 0.00 0.00 0.00 0.00 0.00 0.01 0.03 0.03 0.04 0.04
0.01 0.02 0.01 0.01 0.00 0.00 0.00 0.00 0.00 0.00 0.00 0.00 0.00 0.00 0.00 0.00 0.00 0.00 0.00 0.00 0.00 0.00 0.00 0.00 0.01 0.01 0.02 0.03 0.03 0.03 0.03 0.02 0.02 0.02 0.03 0.03 0.03 0.00 0.00 0.00 0.00 0.00 0.00 0.00 0.00 0.01 0.02 0.03 0.03
0.01 0.00 0.00 0.01 0.00 0.00 0.00 0.00 0.00 0.00 0.00 0.00 0.00 0.00 0.00 0.00 0.00 0.00 0.00 0.00 0.00 0.00 0.00 0.01 0.01 0.01 0.02 0.03 0.04 0.03 0.02 0.01 0.01 0.02 0.03 0.03 0.02 0.01 0.00 0.00 0.00 0.00 0.00 0.00 0.00 0.00 0.01 0.01 0.02
0.01 0.00 0.01 0.01 0.00 0.00 0.00 0.00 0.00 0.00 0.00 0.00 0.00 0.00 0.00 0.00 0.00 0.00 0.01 0.01 0.01 0.00 0.00 0.01 0.00 0.01 0.02 0.03 0.04 0.04 0.02 0.02 0.03 0.02 0.02 0.02 0.02 0.01 0.00 0.00 0.00 0.00 0.00 0.00 0.00 0.00 0.00 0.00 0.01
0.01 0.01 0.02 0.02 0.01 0.00 0.00 0.00 0.00 0.00 0.00 0.00 0.00 0.00 0.00 0.00 0.00 0.01 0.02 0.02 0.01 0.01 0.00 0.00 0.00 0.00 0.01 0.01 0.04 0.05 0.03 0.03 0.04 0.02 0.01 0.01 0.01 0.00 0.00 0.00 0.00 0.00 0.00 0.00 0.00 0.00 0.00 0.00 0.00
0.02 0.01 0.02 0.04 0.03 0.01 0.00 0.00 0.00 0.00 0.00 0.00 0.00 0.00 0.00 0.00 0.00 0.00 0.00 0.00 0.00 0.00 0.00 0.00 0.00 0.00 0.00 0.00 0.02 0.03 0.03 0.04 0.03 0.02 0.02 0.01 0.00 0.00 0.00 0.00 0.00 0.00 0.00 0.00 0.00 0.00 0.00 0.00 0.00
0.03 0.01 0.03 0.03 0.03 0.03 0.01 0.01 0.00 0.00 0.00 0.00 0.00 0.00 0.00 0.00 0.00 0.00 0.00 0.00 0.00 0.00 0.00 0.00 0.00 0.00 0.00 0.00 0.00 0.00 0.01 0.01 0.01 0.00 0.00 0.00 0.00 0.00 0.00 0.00 0.00 0.00 0.00 0.00 0.00 0.00 0.00 0.00 0.00
0.03 0.04 0.05 0.04 0.04 0.03 0.02 0.01 0.00 0.00 0.00 0.00 0.00 0.00 0.00 0.00 0.00 0.00 0.00 0.00 0.00 0.00 0.00 0.00 0.00 0.00 0.00 0.00 0.00 0.00 0.00 0.00 0.00 0.00 0.00 0.00 0.00 0.00 0.00 0.00 0.00 0.00 0.00 0.00 0.00 0.00 0.00 0.00 0.00
0.05 0.04 0.04 0.03 0.03 0.02 0.02 0.01 0.01 0.01 0.00 0.00 0.00 0.00 0.00 0.00 0.00 0.00 0.00 0.00 0.00 0.00 0.00 0.00 0.00 0.00 0.00 0.00 0.00 0.00 0.00 0.00 0.00 0.00 0.00 0.00 0.00 0.00 0.00 0.00 0.00 0.00 0.00 0.00 0.00 0.00 0.00 0.00 0.00
0.08 0.06 0.03 0.03 0.04 0.03 0.02 0.02 0.01 0.01 0.01 0.00 0.00 0.00 0.00 0.00 0.00 0.00 0.00 0.00 0.00 0.00 0.00 0.00 0.00 0.00 0.00 0.00 0.00 0.00 0.00 0.00 0.00 0.00 0.00 0.00 0.00 0.00 0.00 0.00 0.00 0.00 0.00 0.00 0.00 0.00 0.00 0.00 0.00
0.04 0.06 0.09 0.09 0.06 0.04 0.03 0.02 0.01 0.01 0.01 0.00 0.00 0.00 0.00 0.00 0.00 0.00 0.00 0.00 0.00 0.00 0.00 0.00 0.00 0.00 0.00 0.00 0.00 0.00 0.00 0.00 0.00 0.00 0.00 0.00 0.00 0.00 0.00 0.00 0.00 0.00 0.00 0.00 0.00 0.00 0.00 0.00 0.00
0.02 0.04 0.05 0.05 0.03 0.02 0.01 0.01 0.01 0.03 0.03 0.01 0.01 0.00 0.00 0.00 0.00 0.00 0.00 0.00 0.00 0.00 0.00 0.00 0.00 0.00 0.00 0.00 0.00 0.00 0.00 0.00 0.00 0.00 0.00 0.00 0.00 0.00 0.01 0.00 0.00 0.00 0.00 0.00 0.00 0.00 0.00 0.00 0.00
0.01 0.01 0.01 0.01 0.01 0.01 0.00 0.00 0.01 0.03 0.03 0.03 0.02 0.02 0.02 0.01 0.00 0.00 0.00 0.00 0.00 0.00 0.00 0.00 0.00 0.00 0.00 0.00 0.00 0.01 0.01 0.00 0.00 0.00 0.00 0.00 0.01 0.01 0.02 0.01 0.01 0.00 0.00 0.00 0.00 0.00 0.00 0.00 0.00
0.00 0.00 0.00 0.00 0.00 0.00 0.00 0.00 0.02 0.03 0.04 0.04 0.04 0.04 0.03 0.02 0.01 0.01 0.00 0.00 0.00 0.00 0.00 0.00 0.00 0.00 0.01 0.01 0.01 0.01 0.01 0.00 0.01 0.01 0.02 0.03 0.04 0.05 0.06 0.07 0.07 0.05 0.03 0.02 0.01 0.01 0.00 0.00 0.00
0.00 0.00 0.00 0.00 0.00 0.00 0.00 0.00 0.01 0.02 0.02 0.04 0.05 0.04 0.04 0.03 0.02 0.02 0.01 0.00 0.00 0.00 0.00 0.00 0.00 0.00 0.01 0.01 0.02 0.03 0.02 0.02 0.03 0.04 0.04 0.06 0.08 0.11 0.11 0.14 0.16 0.14 0.10 0.06 0.03 0.02 0.01 0.01 0.01
0.01 0.00 0.00 0.00 0.00 0.00 0.00 0.00 0.00 0.01 0.01 0.02 0.03 0.03 0.03 0.02 0.03 0.03 0.02 0.01 0.00 0.00 0.00 0.00 0.00 0.01 0.01 0.01 0.03 0.06 0.05 0.05 0.04 0.05 0.05 0.08 0.10 0.12 0.12 0.14 0.21 0.23 0.21 0.16 0.11 0.06 0.03 0.02 0.01
0.01 0.01 0.00 0.00 0.00 0.00 0.00 0.00 0.00 0.00 0.00 0.01 0.01 0.02 0.02 0.02 0.02 0.02 0.02 0.02 0.01 0.00 0.00 0.01 0.01 0.02 0.02 0.05 0.08 0.10 0.08 0.06 0.05 0.06 0.06 0.07 0.08 0.11 0.13 0.17 0.23 0.29 0.34 0.32 0.23 0.16 0.10 0.06 0.04
0.00 0.00 0.00 0.00 0.00 0.00 0.00 0.00 0.00 0.00 0.00 0.00 0.00 0.00 0.00 0.01 0.01 0.02 0.02 0.02 0.02 0.02 0.02 0.03 0.04 0.06 0.08 0.12 0.16 0.12 0.09 0.08 0.06 0.07 0.08 0.09 0.08 0.08 0.09 0.14 0.19 0.26 0.32 0.34 0.33 0.29 0.24 0.15 0.10
0.00 0.00 0.00 0.00 0.00 0.00 0.00 0.00 0.00 0.00 0.00 0.00 0.00 0.00 0.00 0.00 0.01 0.01 0.01 0.01 0.02 0.02 0.03 0.05 0.07 0.12 0.17 0.21 0.18 0.13 0.09 0.08 0.07 0.08 0.09 0.10 0.08 0.07 0.09 0.12 0.15 0.19 0.23 0.28 0.35 0.39 0.40 0.32 0.25
0.00 0.00 0.00 0.00 0.00 0.00 0.00 0.00 0.00 0.00 0.00 0.00 0.00 0.00 0.00 0.00 0.00 0.01 0.01 0.02 0.03 0.03 0.04 0.08 0.13 0.18 0.25 0.25 0.22 0.16 0.09 0.06 0.06 0.06 0.06 0.08 0.09 0.09 0.08 0.09 0.11 0.14 0.16 0.20 0.29 0.36 0.43 0.43 0.37
0.00 0.00 0.00 0.00 0.00 0.00 0.00 0.00 0.00 0.00 0.00 0.00 0.00 0.00 0.01 0.01 0.02 0.02 0.04 0.05 0.05 0.07 0.10 0.13 0.19 0.25 0.28 0.26 0.19 0.13 0.07 0.04 0.03 0.03 0.04 0.05 0.06 0.07 0.06 0.07 0.08 0.09 0.09 0.14 0.21 0.28 0.35 0.43 0.43
0.00 0.00 0.00 0.00 0.00 0.00 0.00 0.01 0.01 0.01 0.00 0.00 0.00 0.01 0.02 0.04 0.08 0.11 0.14 0.16 0.20 0.23 0.23 0.23 0.24 0.23 0.20 0.15 0.10 0.06 0.03 0.02 0.02 0.02 0.02 0.02 0.02 0.03 0.04 0.04 0.04 0.04 0.05 0.07 0.10 0.13 0.17 0.28 0.32
0.00 0.00 0.01 0.01 0.01 0.00 0.01 0.03 0.03 0.01 0.01 0.01 0.01 0.02 0.04 0.08 0.14 0.22 0.30 0.37 0.40 0.38 0.33 0.31 0.27 0.21 0.15 0.09 0.06 0.04 0.03 0.02 0.01 0.01 0.00 0.00 0.00 0.00 0.01 0.01 0.02 0.03 0.03 0.03 0.04 0.05 0.08 0.13 0.17
0.00 0.00 0.01 0.02 0.02 0.02 0.02 0.05 0.04 0.03 0.02 0.02 0.02 0.03 0.05 0.11 0.18 0.27 0.38 0.46 0.44 0.38 0.31 0.27 0.23 0.17 0.13 0.08 0.05 0.03 0.02 0.01 0.01 0.00 0.00 0.00 0.00 0.00 0.00 0.00 0.00 0.01 0.01 0.02 0.02 0.03 0.04 0.06 0.08
0.01 0.02 0.04 0.06 0.07 0.05 0.05 0.07 0.06 0.04 0.04 0.04 0.04 0.04 0.06 0.11 0.19 0.30 0.39 0.47 0.53 0.49 0.42 0.28 0.18 0.15 0.11 0.07 0.05 0.03 0.02 0.01 0.01 0.01 0.00 0.00 0.00 0.00 0.00 0.00 0.00 0.00 0.00 0.00 0.01 0.01 0.03 0.04 0.06
0.02 0.03 0.06 0.08 0.11 0.11 0.10 0.12 0.10 0.07 0.05 0.05 0.06 0.05 0.05 0.10 0.17 0.28 0.42 0.47 0.45 0.38 0.34 0.27 0.16 0.11 0.07 0.06 0.05 0.03 0.02 0.02 0.01 0.00 0.00 0.00 0.00 0.00 0.00 0.00 0.00 0.00 0.00 0.00 0.00 0.01 0.02 0.02 0.03
0.04 0.06 0.07 0.08 0.09 0.10 0.11 0.15 0.16 0.09 0.07 0.07 0.05 0.05 0.06 0.10 0.14 0.19 0.25 0.30 0.29 0.24 0.20 0.18 0.13 0.09 0.08 0.08 0.07 0.06 0.04 0.02 0.02 0.01 0.00 0.00 0.00 0.00 0.00 0.00 0.00 0.00 0.00 0.00 0.00 0.01 0.01 0.01 0.01
MSLP
1006.74 1007.79 1009.06 1010.37 1011.55 1012.44 1012.97 1013.13 1012.98 1012.63 1012.22 1011.87 1011.64 1011.57 1011.61 1011.69 1011.74 1011.70 1011.56 1011.33 1011.07 1010.86 1010.75 1010.79 1010.97 1011.28 1011.64 1011.99 1012.29 1012.51 1012.65 1012.73 1012.80 1012.91 1013.07 1013.29 1013.55 1013.82 1014.05 1014.21 1014.29 1014.30 1014.26 1014.19 1014.14 1014.12 1014.15 1014.22 1014.33
1007.24 1008.44 1009.79 1011.10 1012.19 1012.92 1013.23 1013.15 1012.76 1012.20 1011.63 1011.18 1010.91 1010.82 1010.88 1011.01 1011.12 1011.15 1011.07 1010.91 1010.73 1010.59 1010.55 1010.66 1010.91 1011.26 1011.66 1012.04 1012.37 1012.61 1012.77 1012.88 1012.98 1013.10 1013.27 1013.49 1013.73 1013.96 1014.16 1014.30 1014.36 1014.37 1014.34 1014.30 1014.28 1014.29 1014.34 1014.42 1014.51
1007.91 1009.21 1010.57 1011.81 1012.75 1013.28 1013.36 1013.05 1012.46 1011.76 1011.10 1010.60 1010.32 1010.27 1010.37 1010.54 1010.69 1010.76 1010.72 1010.60 1010.46 1010.37 1010.38 1010.54 1010.84 1011.24 1011.68 1012.10 1012.46 1012.73 1012.91 1013.05 1013.16 1013.29 1013.46 1013.65 1013.86 1014.05 1014.21 1014.31 1014.36 1014.37 1014.36 1014.36 1014.38 1014.43 1014.51 1014.61 1014.69
1008.73 1010.06 1011.38 1012.48 1013.23 1013.54 1013.41 1012.91 1012.18 1011.39 1010.70 1010.22 1009.99 1009.99 1010.13 1010.34 1010.51 1010.59 1010.56 1010.45 1010.32 1010.26 1010.31 1010.51 1010.84 1011.27 1011.74 1012.18 1012.56 1012.85 1013.05 1013.20 1013.32 1013.46 1013.61 1013.79 1013.96 1014.12 1014.24 1014.32 1014.35 1014.37 1014.38 1014.42 1014.49 1014.59 1014.70 1014.82 1014.90
1009.62 1010.93 1012.14 1013.07 1013.62 1013.72 1013.40 1012.76 1011.95 1011.15 1010.50 1010.08 1009.92 1009.98 1010.18 1010.41 1010.58 1010.64 1010.59 1010.47 1010.35 1010.29 1010.36 1010.58 1010.93 1011.37 1011.85 1012.29 1012.66 1012.95 1013.15 1013.31 1013.44 1013.58 1013.74 1013.91 1014.07 1014.20 1014.30 1014.36 1014.39 1014.42 1014.46 1014.53 1014.65 1014.79 1014.93 1015.06 1015.16
1010.48 1011.71 1012.77 1013.52 1013.86 1013.78 1013.32 1012.60 1011.78 1011.02 1010.45 1010.12 1010.05 1010.18 1010.42 1010.65 1010.81 1010.84 1010.77 1010.63 1010.50 1010.45 1010.53 1010.75 1011.10 1011.53 1011.99 1012.40 1012.74 1013.00 1013.20 1013.35 1013.50 1013.65 1013.83 1014.01 1014.18 1014.32 1014.42 1014.48 1014.51 1014.55 1014.61 1014.72 1014.86 1015.03 1015.20 1015.35 1015.45
1011.18 1012.29 1013.18 1013.74 1013.90 1013.66 1013.12 1012.38 1011.60 1010.93 1010.47 1010.26 1010.28 1010.47 1010.73 1010.96 1011.09 1011.09 1010.99 1010.85 1010.72 1010.68 1010.76 1010.99 1011.33 1011.73 1012.13 1012.49 1012.77 1012.99 1013.16 1013.31 1013.47 1013.66 1013.88 1014.10 1014.31 1014.48 1014.60 1014.67 1014.72 1014.77 1014.84 1014.96 1015.12 1015.31 1015.50 1015.65 1015.75
1011.67 1012.63 1013.33 1013.70 1013.70 1013.36 1012.77 1012.06 1011.36 1010.81 1010.47 1010.37 1010.47 1010.71 1010.97 1011.19 1011.30 1011.28 1011.17 1011.03 1010.92 1010.91 1011.01 1011.24 1011.56 1011.91 1012.25 1012.53 1012.75 1012.91 1013.05 1013.20 1013.39 1013.62 1013.89 1014.18 1014.45 1014.67 1014.82 1014.92 1014.98 1015.03 1015.11 1015.23 1015.39 1015.59 1015.78 1015.94 1016.05
1011.93 1012.71 1013.23 1013.43 1013.30 1012.89 1012.30 1011.63 1011.03 1010.60 1010.38 1010.37 1010.54 1010.80 1011.06 1011.26 1011.35 1011.32 1011.23 1011.12 1011.05 1011.08 1011.22 1011.45 1011.75 1012.05 1012.32 1012.53 1012.67 1012.78 1012.89 1013.04 1013.25 1013.54 1013.88 1014.24 1014.58 1014.86 1015.05 1015.18 1015.25 1015.30 1015.37 1015.48 1015.64 1015.83 1016.02 1016.19 1016.30
1012.01 1012.62 1012.95 1013.00 1012.77 1012.31 1011.73 1011.14 1010.64 1010.31 1010.18 1010.25 1010.45 1010.71 1010.96 1011.14 1011.22 1011.20 1011.14 1011.08 1011.08 1011.17 1011.35 1011.60 1011.88 1012.14 1012.35 1012.48 1012.56 1012.62 1012.71 1012.86 1013.11 1013.45 1013.86 1014.29 1014.69 1015.02 1015.26 1015.40 1015.48 1015.52 1015.59 1015.68 1015.83 1016.01 1016.20 1016.38 1016.51
1012.00 1012.44 1012.62 1012.54 1012.22 1011.75 1011.19 1010.67 1010.25 1010.00 1009.94 1010.04 1010.25 1010.49 1010.72 1010.87 1010.94 1010.95 1010.93 1010.93 1011.00 1011.15 1011.38 1011.65 1011.93 1012.16 1012.32 1012.41 1012.45 1012.48 1012.55 1012.71 1012.99 1013.38 1013.84 1014.32 1014.77 1015.14 1015.40 1015.55 1015.63 1015.68 1015.73 1015.81 1015.95 1016.13 1016.33 1016.52 1016.67
1012.02 1012.31 1012.35 1012.17 1011.80 1011.31 1010.79 1010.31 1009.95 1009.76 1009.73 1009.83 1010.02 1010.23 1010.41 1010.54 1010.60 1010.62 1010.63 1010.70 1010.83 1011.04 1011.31 1011.61 1011.90 1012.12 1012.26 1012.33 1012.35 1012.37 1012.45 1012.63 1012.93 1013.34 1013.83 1014.33 1014.80 1015.19 1015.46 1015.63 1015.71 1015.75 1015.80 1015.88 1016.02 1016.21 1016.42 1016.63 1016.80
1012.15 1012.32 1012.27 1012.01 1011.60 1011.11 1010.62 1010.18 1009.86 1009.69 1009.65 1009.73 1009.86 1010.01 1010.14 1010.22 1010.25 1010.27 1010.31 1010.41 1010.58 1010.83 1011.14 1011.46 1011.76 1012.00 1012.15 1012.23 1012.27 1012.31 1012.41 1012.61 1012.92 1013.34 1013.83 1014.33 1014.79 1015.17 1015.44 1015.60 1015.69 1015.75 1015.81 1015.91 1016.06 1016.27 1016.50 1016.74 1016.94
1012.44 1012.53 1012.40 1012.11 1011.69 1011.21 1010.74 1010.33 1010.03 1009.85 1009.79 1009.80 1009.87 1009.94 1009.99 1010.00 1009.98 1009.97 1009.99 1010.08 1010.26 1010.52 1010.84 1011.18 1011.51 1011.78 1011.97 1012.10 1012.19 1012.28 1012.42 1012.64 1012.95 1013.36 1013.82 1014.28 1014.71 1015.07 1015.33 1015.50 1015.60 1015.68 1015.78 1015.91 1016.10 1016.34 1016.60 1016.87 1017.10
1012.86 1012.90 1012.75 1012.44 1012.03 1011.58 1011.14 1010.75 1010.46 1010.26 1010.14 1010.09 1010.07 1010.04 1009.98 1009.90 1009.80 1009.71 1009.68 1009.72 1009.85 1010.09 1010.39 1010.75 1011.10 1011.42 1011.69 1011.90 1012.08 1012.25 1012.44 1012.68 1013.00 1013.37 1013.78 1014.19 1014.57 1014.88 1015.13 1015.31 1015.45 1015.58 1015.72 1015.91 1016.15 1016.43 1016.74 1017.03 1017.29
1013.36 1013.37 1013.21 1012.93 1012.55 1012.14 1011.74 1011.39 1011.09 1010.87 1010.70 1010.56 1010.43 1010.28 1010.11 1009.90 1009.68 1009.48 1009.34 1009.29 1009.35 1009.52 1009.79 1010.14 1010.53 1010.92 1011.28 1011.61 1011.90 1012.16 1012.42 1012.70 1013.01 1013.34 1013.69 1014.03 1014.35 1014.63 1014.86 1015.06 1015.24 1015.43 1015.65 1015.91 1016.21 1016.54 1016.88 1017.20 1017.48
1013.84 1013.85 1013.71 1013.47 1013.15 1012.80 1012.46 1012.14 1011.85 1011.60 1011.37 1011.15 1010.91 1010.63 1010.31 1009.96 1009.60 1009.25 1008.97 1008.79 1008.73 1008.82 1009.04 1009.38 1009.81 1010.28 1010.75 1011.21 1011.62 1012.00 1012.34 1012.66 1012.96 1013.25 1013.53 1013.80 1014.06 1014.30 1014.52 1014.75 1014.99 1015.25 1015.55 1015.88 1016.25 1016.63 1017.00 1017.35 1017.66
1014.25 1014.27 1014.16 1013.98 1013.74 1013.47 1013.19 1012.91 1012.64 1012.38 1012.09 1011.78 1011.43 1011.02 1010.55 1010.04 1009.51 1009.00 1008.56 1008.22 1008.04 1008.03 1008.20 1008.53 1008.99 1009.54 1010.14 1010.73 1011.27 1011.77 1012.19 1012.54 1012.84 1013.09 1013.31 1013.51 1013.71 1013.92 1014.15 1014.40 1014.69 1015.02 1015.40 1015.80 1016.23 1016.65 1017.06 1017.44 1017.76
1014.57 1014.59 1014.53 1014.41 1014.26 1014.08 1013.88 1013.66 1013.41 1013.13 1012.80 1012.40 1011.94 1011.40 1010.78 1010.11 1009.42 1008.74 1008.14 1007.66 1007.35 1007.24 1007.35 1007.68 1008.18 1008.81 1009.51 1010.23 1010.90 1011.50 1011.99 1012.39 1012.67 1012.89 1013.05 1013.20 1013.35 1013.52 1013.75 1014.03 1014.36 1014.75 1015.19 1015.65 1016.12 1016.58 1017.01 1017.41 1017.76
1014.81 1014.83 1014.82 1014.77 1014.71 1014.62 1014.50 1014.34 1014.12 1013.83 1013.45 1012.98 1012.41 1011.75 1011.00 1010.19 1009.35 1008.53 1007.78 1007.18 1006.76 1006.58 1006.65 1006.96 1007.50 1008.19 1008.98 1009.80 1010.57 1011.25 1011.80 1012.22 1012.50 1012.68 1012.80 1012.89 1013.00 1013.15 1013.36 1013.65 1014.02 1014.44 1014.91 1015.40 1015.90 1016.38 1016.83 1017.24 1017.62
1015.03 1015.06 1015.09 1015.11 1015.13 1015.13 1015.08 1014.97 1014.77 1014.46 1014.04 1013.50 1012.85 1012.08 1011.22 1010.29 1009.34 1008.42 1007.58 1006.89 1006.40 1006.17 1006.21 1006.51 1007.07 1007.80 1008.64 1009.52 1010.35 1011.08 1011.67 1012.09 1012.36 1012.51 1012.59 1012.64 1012.71 1012.83 1013.03 1013.32 1013.68 1014.11 1014.58 1015.07 1015.56 1016.04 1016.49 1016.91 1017.32
1015.32 1015.36 1015.42 1015.50 1015.59 1015.65 1015.66 1015.58 1015.38 1015.05 1014.59 1013.98 1013.25 1012.40 1011.47 1010.47 1009.46 1008.48 1007.60 1006.87 1006.36 1006.10 1006.12 1006.42 1006.97 1007.72 1008.57 1009.46 1010.30 1011.04 1011.62 1012.03 1012.28 1012.40 1012.45 1012.47 1012.50 1012.60 1012.77 1013.04 1013.38 1013.79 1014.23 1014.69 1015.15 1015.59 1016.03 1016.45 1016.87
1015.74 1015.78 1015.86 1015.99 1016.12 1016.23 1016.26 1016.19 1015.98 1015.61 1015.09 1014.43 1013.63 1012.73 1011.75 1010.73 1009.71 1008.73 1007.86 1007.15 1006.65 1006.40 1006.42 1006.71 1007.24 1007.95 1008.77 1009.62 1010.42 1011.11 1011.66 1012.04 1012.26 1012.36 1012.38 1012.38 1012.39 1012.46 1012.61 1012.84 1013.14 1013.49 1013.88 1014.28 1014.69 1015.09 1015.49 1015.90 1016.32
1016.31 1016.34 1016.45 1016.60 1016.75 1016.87 1016.90 1016.80 1016.55 1016.13 1015.55 1014.83 1013.99 1013.06 1012.07 1011.07 1010.08 1009.15 1008.34 1007.69 1007.24 1007.02 1007.04 1007.31 1007.79 1008.43 1009.18 1009.94 1010.66 1011.28 1011.76 1012.09 1012.28 1012.36 1012.37 1012.35 1012.36 1012.41 1012.53 1012.71 1012.96 1013.26 1013.57 1013.91 1014.24 1014.58 1014.94 1015.31 1015.72
1017.00 1017.04 1017.15 1017.30 1017.45 1017.55 1017.54 1017.39 1017.08 1016.59 1015.95 1015.18 1014.31 1013.37 1012.40 1011.44 1010.52 1009.69 1008.97 1008.40 1008.02 1007.84 1007.87 1008.11 1008.52 1009.07 1009.70 1010.34 1010.95 1011.46 1011.87 1012.14 1012.30 1012.36 1012.37 1012.36 1012.37 1012.41 1012.51 1012.66 1012.86 1013.09 1013.34 1013.60 1013.86 1014.14 1014.44 1014.77 1015.14
1017.76 1017.80 1017.91 1018.05 1018.16 1018.21 1018.15 1017.93 1017.54 1016.98 1016.27 1015.45 1014.56 1013.63 1012.70 1011.80 1010.98 1010.25 1009.64 1009.18 1008.87 1008.74 1008.77 1008.96 1009.30 1009.73 1010.23 1010.73 1011.20 1011.60 1011.91 1012.13 1012.26 1012.33 1012.35 1012.36 1012.39 1012.44 1012.53 1012.66 1012.82 1013.00 1013.19 1013.38 1013.59 1013.81 1014.05 1014.33 1014.65
1018.52 1018.56 1018.66 1018.76 1018.83 1018.82 1018.67 1018.37 1017.90 1017.26 1016.50 1015.64 1014.74 1013.82 1012.94 1012.12 1011.40 1010.78 1010.28 1009.91 1009.67 1009.57 1009.60 1009.74 1009.99 1010.30 1010.65 1011.01 1011.35 1011.64 1011.87 1012.04 1012.15 1012.23 1012.28 1012.33 1012.39 1012.46 1012.56 1012.68 1012.82 1012.96 1013.11 1013.27 1013.43 1013.60 1013.80 1014.03 1014.29
1019.23 1019.27 1019.34 1019.40 1019.41 1019.32 1019.10 1018.71 1018.16 1017.47 1016.65 1015.77 1014.87 1013.98 1013.14 1012.40 1011.75 1011.23 1010.82 1010.52 1010.34 1010.26 1010.27 1010.36 1010.51 1010.71 1010.93 1011.16 1011.38 1011.57 1011.73 1011.86 1011.97 1012.07 1012.15 1012.24 1012.34 1012.45 1012.57 1012.69 1012.83 1012.96 1013.09 1013.22 1013.36 1013.51 1013.68 1013.87 1014.08
1019.84 1019.88 1019.92 1019.94 1019.88 1019.72 1019.42 1018.97 1018.36 1017.62 1016.79 1015.90 1015.00 1014.14 1013.35 1012.66 1012.07 1011.61 1011.26 1011.02 1010.86 1010.78 1010.76 1010.80 1010.87 1010.97 1011.07 1011.19 1011.31 1011.42 1011.53 1011.64 1011.75 1011.87 1011.99 1012.12 1012.25 1012.39 1012.53 1012.67 1012.81 1012.95 1013.08 1013.22 1013.36 1013.51 1013.66 1013.83 1014.00
1020.39 1020.41 1020.42 1020.39 1020.28 1020.05 1019.70 1019.20 1018.56 1017.80 1016.96 1016.08 1015.21 1014.38 1013.62 1012.97 1012.43 1012.00 1011.67 1011.44 1011.28 1011.19 1011.14 1011.11 1011.11 1011.12 1011.14 1011.17 1011.21 1011.27 1011.34 1011.43 1011.55 1011.68 1011.83 1011.98 1012.14 1012.30 1012.46 1012.61 1012.75 1012.90 1013.04 1013.20 1013.35 1013.52 1013.68 1013.84 1013.99
Thickness
5830 5830 5827 5813 5787 5766 5766 5778 5786 5791 5794 5801 5804 5799 5792 5785 5781 5778 5797 5804 5804 5801 5798 5795 5792 5788 5785 5782 5779 5777 5775 5772 5770 5768 5765 5763 5761 5760 5759 5759 5759 5759 5759 5759 5759 5760 5760 5760 5761
5831 5828 5817 5797 5769 5752 5763 5783 5786 5794 5801 5804 5804 5799 5792 5789 5795 5795 5798 5802 5803 5801 5798 5795 5792 5788 5785 5782 5779 5777 5774 5772 5769 5767 5765 5762 5761 5759 5758 5757 5757 5756 5756 5757 5756 5757 5757 5757 5757
5830 5825 5803 5784 5768 5759 5771 5788 5792 5801 5807 5806 5798 5797 5793 5790 5796 5797 5802 5803 5802 5799 5797 5794 5791 5788 5785 5782 5779 5777 5774 5772 5769 5767 5764 5762 5760 5758 5757 5755 5755 5754 5754 5754 5754 5753 5753 5753 5753
5823 5809 5795 5777 5770 5777 5784 5794 5799 5799 5805 5807 5799 5791 5796 5804 5803 5803 5805 5803 5800 5798 5796 5794 5791 5788 5785 5782 5779 5777 5775 5772 5769 5767 5764 5761 5759 5757 5756 5754 5753 5752 5751 5751 5751 5750 5750 5750 5750
5816 5797 5778 5767 5771 5784 5795 5802 5803 5798 5799 5802 5798 5788 5790 5802 5808 5806 5804 5802 5798 5796 5795 5793 5791 5788 5786 5783 5780 5777 5775 5773 5770 5767 5764 5761 5759 5757 5755 5753 5751 5750 5749 5748 5747 5747 5747 5747 5747
5797 5787 5765 5759 5769 5785 5798 5807 5805 5800 5799 5801 5797 5788 5789 5801 5803 5803 5803 5800 5799 5797 5795 5793 5791 5788 5786 5783 5781 5778 5776 5773 5770 5767 5764 5761 5758 5756 5754 5752 5750 5748 5747 5746 5745 5745 5745 5745 5745
5789 5776 5764 5765 5767 5780 5799 5808 5804 5799 5798 5801 5801 5787 5789 5797 5802 5804 5802 5799 5797 5796 5794 5793 5791 5788 5786 5783 5781 5778 5776 5773 5770 5767 5764 5761 5758 5755 5753 5751 5749 5747 5745 5744 5743 5742 5742 5742 5742
5796 5779 5767 5766 5768 5778 5799 5807 5810 5805 5802 5811 5807 5790 5787 5798 5804 5803 5799 5797 5795 5794 5793 5792 5790 5788 5785 5783 5781 5778 5776 5773 5770 5767 5764 5761 5758 5755 5752 5750 5748 5746 5744 5742 5741 5740 5739 5739 5740
5800 5771 5762 5770 5773 5782 5798 5801 5809 5816 5809 5809 5810 5807 5807 5808 5804 5798 5794 5791 5790 5791 5791 5790 5788 5787 5785 5782 5780 5778 5775 5773 5770 5767 5763 5760 5757 5754 5752 5749 5747 5745 5743 5741 5739 5738 5737 5737 5738
5788 5765 5772 5785 5787 5788 5795 5798 5805 5806 5801 5800 5803 5808 5811 5807 5801 5795 5791 5788 5788 5788 5788 5788 5787 5785 5783 5782 5780 5777 5775 5772 5769 5766 5763 5759 5756 5753 5751 5748 5746 5744 5742 5740 5737 5736 5735 5735 5735
5788 5776 5785 5790 5796 5795 5795 5800 5809 5800 5793 5800 5802 5803 5805 5803 5799 5796 5794 5792 5790 5789 5788 5787 5785 5784 5782 5780 5778 5776 5773 5771 5768 5765 5761 5758 5755 5752 5749 5747 5745 5743 5740 5738 5736 5734 5733 5732 5732
5782 5785 5789 5793 5799 5797 5796 5799 5801 5801 5804 5815 5815 5812 5807 5801 5799 5797 5795 5794 5792 5789 5788 5787 5785 5782 5780 5779 5776 5774 5771 5768 5766 5763 5760 5757 5753 5750 5747 5745 5743 5741 5738 5735 5733 5732 5730 5729 5729
5777 5781 5790 5795 5796 5796 5796 5796 5797 5801 5809 5817 5815 5809 5805 5802 5801 5800 5799 5795 5792 5789 5787 5786 5784 5781 5778 5776 5774 5771 5769 5767 5764 5761 5759 5756 5753 5749 5746 5743 5741 5739 5736 5734 5731 5730 5728 5727 5726
5779 5781 5782 5784 5787 5790 5789 5792 5793 5796 5804 5807 5806 5803 5803 5802 5801 5797 5795 5793 5790 5789 5787 5786 5783 5780 5777 5773 5771 5769 5767 5764 5762 5759 5757 5754 5751 5748 5745 5742 5739 5737 5735 5732 5730 5728 5726 5725 5723
5781 5772 5772 5775 5778 5781 5782 5777 5780 5788 5795 5796 5797 5798 5798 5798 5798 5796 5796 5795 5793 5790 5788 5786 5783 5780 5775 5772 5769 5767 5764 5761 5759 5757 5755 5752 5750 5747 5744 5741 5738 5736 5733 5730 5728 5725 5723 5721 5720
5768 5757 5750 5763 5769 5774 5770 5758 5774 5783 5783 5782 5785 5787 5790 5793 5796 5797 5797 5796 5794 5791 5787 5786 5784 5779 5775 5771 5767 5765 5762 5759 5757 5755 5752 5750 5748 5745 5742 5739 5737 5735 5731 5728 5725 5722 5719 5717 5715
5742 5735 5738 5749 5761 5762 5758 5753 5768 5775 5774 5772 5774 5777 5780 5784 5789 5794 5796 5796 5795 5792 5788 5785 5783 5780 5775 5770 5766 5763 5760 5758 5755 5753 5751 5749 5746 5743 5740 5737 5735 5732 5729 5726 5724 5720 5717 5713 5710
5728 5728 5730 5734 5749 5750 5745 5745 5757 5762 5762 5761 5763 5765 5769 5775 5784 5791 5794 5796 5795 5793 5790 5786 5782 5779 5774 5768 5762 5758 5756 5755 5753 5751 5749 5747 5744 5742 5738 5735 5733 5730 5726 5723 5721 5717 5714 5710 5707
5732 5725 5721 5728 5742 5738 5734 5735 5741 5746 5745 5746 5748 5752 5758 5767 5779 5786 5792 5794 5794 5792 5789 5785 5780 5776 5771 5764 5758 5753 5751 5751 5749 5748 5746 5744 5742 5740 5737 5735 5731 5728 5723 5721 5718 5714 5710 5705 5703
5723 5715 5713 5722 5731 5729 5722 5724 5729 5731 5730 5731 5734 5739 5746 5757 5769 5778 5786 5790 5792 5792 5790 5786 5780 5776 5771 5766 5760 5754 5750 5747 5746 5744 5743 5742 5740 5738 5735 5732 5729 5726 5721 5717 5714 5710 5705 5702 5699
5713 5707 5707 5708 5714 5715 5709 5707 5712 5716 5718 5722 5726 5731 5737 5746 5756 5769 5778 5785 5789 5790 5789 5786 5780 5773 5767 5761 5754 5749 5744 5742 5739 5738 5738 5738 5737 5735 5733 5730 5727 5724 5720 5716 5712 5708 5703 5698 5694
5696 5708 5705 5701 5691 5683 5691 5673 5693 5692 5698 5706 5712 5718 5726 5737 5749 5761 5771 5779 5784 5787 5787 5782 5776 5769 5761 5754 5748 5742 5738 5735 5735 5735 5734 5734 5733 5731 5729 5727 5724 5721 5718 5714 5711 5707 5703 5697 5691
5694 5699 5694 5690 5681 5671 5673 5664 5670 5677 5679 5687 5696 5704 5713 5725 5737 5750 5761 5770 5777 5779 5778 5773 5768 5761 5754 5747 5740 5735 5733 5732 5732 5731 5730 5728 5728 5727 5725 5723 5720 5717 5715 5712 5708 5705 5701 5697 5692
5687 5681 5674 5664 5658 5651 5662 5653 5654 5661 5665 5673 5683 5691 5700 5712 5724 5735 5747 5756 5761 5764 5764 5761 5755 5748 5745 5739 5731 5727 5726 5725 5725 5725 5724 5723 5722 5721 5720 5718 5716 5713 5711 5708 5705 5702 5698 5695 5691
5663 5648 5633 5633 5629 5635 5652 5646 5644 5656 5662 5665 5670 5679 5688 5698 5709 5718 5727 5735 5740 5743 5744 5745 5743 5734 5731 5727 5722 5721 5721 5720 5720 5719 5718 5717 5716 5715 5715 5713 5711 5709 5706 5704 5701 5698 5694 5691 5688
5640 5631 5613 5607 5612 5622 5637 5633 5639 5651 5656 5660 5664 5670 5678 5686 5695 5704 5710 5717 5722 5725 5726 5726 5725 5719 5717 5716 5714 5714 5715 5715 5714 5714 5713 5712 5711 5710 5710 5708 5706 5704 5701 5698 5696 5693 5690 5688 5685
5618 5611 5610 5601 5606 5609 5619 5626 5636 5643 5646 5651 5657 5662 5668 5676 5683 5691 5698 5703 5708 5710 5710 5710 5709 5708 5706 5705 5707 5707 5708 5709 5708 5708 5708 5707 5706 5705 5704 5702 5700 5698 5696 5694 5691 5688 5685 5683 5682
5607 5598 5588 5585 5587 5592 5606 5611 5611 5621 5628 5638 5646 5652 5659 5667 5675 5681 5687 5691 5695 5697 5698 5698 5698 5698 5696 5699 5701 5703 5703 5703 5703 5702 5701 5701 5701 5700 5697 5695 5693 5692 5690 5688 5686 5683 5682 5679 5678
5590 5585 5579 5577 5582 5585 5591 5598 5607 5610 5619 5628 5637 5645 5652 5660 5667 5673 5677 5681 5684 5684 5685 5686 5688 5689 5691 5694 5696 5698 5698 5699 5698 5697 5696 5696 5695 5693 5691 5690 5688 5685 5683 5682 5680 5678 5677 5675 5675
5586 5577 5574 5571 5578 5586 5589 5591 5604 5607 5618 5626 5633 5641 5649 5656 5663 5667 5670 5673 5676 5677 5679 5681 5684 5687 5690 5693 5694 5694 5695 5695 5695 5693 5692 5690 5689 5688 5686 5684 5682 5679 5677 5676 5674 5672 5672 5671 5671